This demonstration page uses our WeatherBlox Daily Observations layout. Learn more.

Left ArrowRight Arrow

Hourly Observations for April 30, 2022

Temp ( °F °C ) Dew Point ( °F °C ) Humidity (%) Winds ( mph kmh ) Pressure ( in mb ) Visibility ( mi km ) Precip ( " mm )
12:56 am 00:56 Mostly Cloudy 56 13.1 54 12.3 95 95 Calm 29.44 997 10 16 0.00 0.00
1:56 am 01:56 Cloudy 56 13.4 55 12.6 95 95 SSW 8 13 29.50 999 10 16 0.00 0.00
2:56 am 02:56 Mostly Cloudy with Mist and Fog 55 12.9 55 12.6 98 98 SW 8 13 29.47 998 3 5 0.00 0.00
3:56 am 03:56 Cloudy with Rain 55 12.6 55 12.6 100 100 SSW 7 11 29.47 998 4 6 0.12 3.05
4:56 am 04:56 Partly Cloudy 55 12.8 53 11.5 92 92 WSW 10 17 29.44 997 10 16 0.00 0.00
5:56 am 05:56 Cloudy 55 12.8 51 10.5 86 86 WSW 9 15 29.44 997 10 16 0.00 0.00
6:56 am 06:56 Cloudy 53 11.4 46 7.9 79 79 WSW 17 28 29.45 997 10 16 0.00 0.00
7:29 am 07:29 Cloudy with Light Rain 52 11 46 8 82 82 SW 14 22 29.45 997 10 16 0.00 0.00
7:56 am 07:56 Partly Cloudy with Light Showers 51 10.4 44 6.7 78 78 SW 16 26 29.45 997 10 16 0.00 0.00
8:12 am 08:12 Cloudy 50 10 43 6 76 76 WSW 15 24 29.45 997 10 16 0.00 0.00
8:35 am 08:35 Cloudy 50 10 43 6 76 76 WSW 16 26 29.45 997 10 16 0.00 0.00
8:56 am 08:56 Cloudy 50 10.1 43 6.1 76 76 SW 16 26 29.44 997 10 16 0.00 0.00
9:56 am 09:56 Cloudy 49 9.7 43 6 78 78 SW 18 30 29.44 997 9 14 0.00 0.00
10:20 am 10:20 Cloudy with Drizzle 48 9 43 6 82 82 SW 17 28 29.43 997 9 14 0.00 0.00
10:56 am 10:56 Cloudy with Drizzle 49 9.2 46 7.6 90 90 SW 18 30 29.43 997 4 6 0.02 0.51
11:56 am 11:56 Cloudy with Drizzle 50 10 47 8.6 91 91 W 22 35 29.46 998 6 10 0.02 0.51
12:47 pm 12:47 Cloudy 50 10 46 8 88 88 W 20 31 29.50 999 10 16 0.00 0.00
12:56 pm 12:56 Cloudy 51 10.3 45 7.2 81 81 WNW 28 44 29.51 999 10 16 0.00 0.00
1:56 pm 13:56 Cloudy 51 10.4 43 6.2 75 75 WNW 25 41 29.55 1001 10 16 0.00 0.00
2:25 pm 14:25 Mostly Cloudy with Drizzle 50 10 45 7 82 82 W 20 31 29.59 1002 7 11 0.00 0.00
2:56 pm 14:56 Cloudy with Light Rain 49 9.3 44 6.7 84 84 W 20 31 29.62 1003 6 10 0.02 0.51
3:56 pm 15:56 Cloudy with Light Rain 49 9.3 42 5.8 79 79 W 21 33 29.65 1004 8 13 0.03 0.76
4:38 pm 16:38 Cloudy 50 10 41 5 71 71 W 24 39 29.67 1005 8 13 0.00 0.00
4:56 pm 16:56 Cloudy 49 9.2 40 4.4 72 72 W 30 48 29.67 1005 10 16 0.00 0.00
5:56 pm 17:56 Cloudy 49 9.7 39 4.1 68 68 WNW 25 41 29.70 1006 10 16 0.00 0.00
6:56 pm 18:56 Cloudy 49 9.6 39 4 68 68 WNW 18 30 29.72 1007 10 16 0.00 0.00
7:56 pm 19:56 Cloudy 49 9.3 39 3.9 69 69 WNW 21 33 29.75 1007 10 16 0.00 0.00
8:56 pm 20:56 Mostly Cloudy 48 9 38 3.2 67 67 WNW 20 31 29.78 1008 10 16 0.00 0.00
9:56 pm 21:56 Cloudy 48 9 38 3.2 67 67 W 18 30 29.81 1010 10 16 0.00 0.00
10:56 pm 22:56 Cloudy 48 8.9 38 3.3 68 68 WNW 20 31 29.82 1010 10 16 0.00 0.00
11:56 pm 23:56 Cloudy 48 8.9 38 3.3 68 68 WNW 21 33 29.83 1010 10 16 0.00 0.00

Powered by AerisWeather